Regional Weather Roundup
Issued by NWS Kansas City/Pleasant Hill, MO

Home | Current Version | Previous Version | Graphics & Text | Print | Product List | Glossary Off
Versions: 1 2 3 4 5 6 7 8 9 10 11 12 13 14 15 16 17 18 19 20 21 22 23 24 25 26 27 28 29 30 31 32 33 34 35 36 37 38 39 40 41 42 43 44 45 46 47 48 49 50

344
ASUS43 KEAX 222210
RWREAX

WEATHER ROUNDUP FOR EASTERN KANSAS AND NORTHWEST MISSOURI
NATIONAL WEATHER SERVICE KANSAS CITY/PLEASANT HILL MO
400 PM CST WED FEB 22 2017

KSZ040-057-103>105-MOZ028-029-037-043-222300-
...KANSAS CITY METROPOLITAN AREA...

CITY           SKY/WX    TMP DP  RH WIND       PRES   REMARKS
K.C. INTL      PTSUNNY   78  34  20 SW15      29.63F
K.C. DOWNTOWN  SUNNY     80  35  19 SW6       29.61F
LEES SUMMIT    SUNNY     79  35  20 SW20      29.64F
OLATHE - IXD   SUNNY     81  37  20 SW16      29.63F
OLATHE - OJC   SUNNY     79  36  21 SW12      29.63F
LAWRENCE       SUNNY     81  34  18 W10       29.62F

$$

MOZ001>008-011>017-020>025-030>033-038>040-044>046-053-054-222300-
...NORTHERN AND CENTRAL MISSOURI...

CITY           SKY/WX    TMP DP  RH WIND       PRES   REMARKS
ST. JOSEPH     SUNNY     76  37  24 SW5       29.63S
WARRENSBURG    SUNNY     77  41  27 S15       29.65S
WHITEMAN AFB   MOSUNNY   77  43  29 SW18      29.64F
CLINTON        SUNNY     77  41  27 SW14      29.68F
SEDALIA        MOSUNNY   76  48  37 SW15      29.67F
WARSAW         NOT AVBL
CHILLICOTHE      N/A     77  42  28 SW9       29.62F
KIRKSVILLE     SUNNY     72  46  39 SW18G28   29.64R

$$

MOZ041-047>049-056>058-063>065-088>090-097-222300-
...EASTERN AND SOUTHERN MISSOURI...

CITY           SKY/WX    TMP DP  RH WIND       PRES   REMARKS
ST. LOUIS INTL CLOUDY    73  56  54 W5        29.72F
SPIRIT OF STL  MOSUNNY   71  57  61 CALM      29.71F
COLUMBIA       CLOUDY    70  55  59 S17       29.69F
JEFFERSON CITY MOSUNNY   67  54  63 S8        29.70F
ROLLA          SUNNY     70  55  59 S10       29.72F
OSAGE BEACH    SUNNY     72  55  55 S12       29.71
SPRINGFIELD    SUNNY     70  56  61 SE12      29.72F
BRANSON        PTSUNNY   73  55  53 CALM      29.75F
JOPLIN         SUNNY     78  45  30 SW12      29.71F
WEST PLAINS    SUNNY     67  55  65 S10       29.78F

$$

IAZ060-094-KSZ022-034>040-054-083-096-NEZ052-066-093-222300-
...KANSAS...SOUTHEAST NEBRASKA AND IOWA...

CITY           SKY/WX    TMP DP  RH WIND       PRES   REMARKS
TOPEKA         SUNNY     77  37  23 W8        29.63F
MANHATTAN      MOSUNNY   80  32  17 W5        29.64S
EMPORIA        SUNNY     79  33  19 W10       29.64F
CHANUTE        SUNNY     81  32  17 SW13      29.66F
WICHITA        MOSUNNY   76  46  34 S8        29.67S
OMAHA          MOSUNNY   72  38  29 N16       29.62S
LINCOLN        SUNNY     75  31  19 NW13      29.66R
FALLS CITY     SUNNY     75  34  22 NW9       29.63R
LAMONI         SUNNY     74  35  24 W10       29.61S
DES MOINES     MOSUNNY   72  38  29 W14       29.59S

$$





USA.gov is the U.S. government's official web portal to all federal, state and local government web resources and services.